TimeAKST,TemperatureF,Dew PointF,Humidity,Sea Level PressureIn,VisibilityMPH,Wind Direction,Wind SpeedMPH,Gust SpeedMPH,PrecipitationIn,Events,Conditions,WindDirDegrees,DateUTC
12:17 AM,35.6,32.0,87,29.65,10.0,East,11.5,19.6,N/A,,Scattered Clouds,100,2013-02-24 09:17:00
12:54 AM,36.0,30.9,82,29.66,10.0,East,9.2,20.7,N/A,,Partly Cloudy,80,2013-02-24 09:54:00
1:54 AM,36.0,30.9,82,29.65,10.0,ESE,12.7,23.0,N/A,,Overcast,110,2013-02-24 10:54:00
2:54 AM,36.0,30.9,82,29.65,10.0,ENE,12.7,17.3,0.00,,Overcast,70,2013-02-24 11:54:00
3:16 AM,35.6,30.2,81,29.64,10.0,ENE,11.5,-,0.00,,Overcast,70,2013-02-24 12:16:00
3:46 AM,35.6,30.2,81,29.64,10.0,East,9.2,16.1,0.00,,Overcast,100,2013-02-24 12:46:00
3:54 AM,36.0,30.0,79,29.65,10.0,East,9.2,16.1,0.00,,Overcast,100,2013-02-24 12:54:00
4:54 AM,36.0,30.0,79,29.64,10.0,ENE,6.9,17.3,N/A,,Scattered Clouds,70,2013-02-24 13:54:00
5:54 AM,36.0,28.9,76,29.63,10.0,East,9.2,20.7,N/A,,Overcast,80,2013-02-24 14:54:00
6:49 AM,35.6,30.2,81,29.63,10.0,ENE,9.2,19.6,0.00,,Overcast,70,2013-02-24 15:49:00
6:54 AM,35.1,30.0,82,29.64,9.0,East,9.2,-,0.00,Snow,Light Snow,80,2013-02-24 15:54:00
7:54 AM,34.0,30.9,89,29.65,8.0,East,13.8,21.9,0.00,Snow,Light Snow,80,2013-02-24 16:54:00
8:23 AM,33.8,30.2,87,29.66,2.0,ENE,11.5,19.6,0.00,Snow,Light Snow,70,2013-02-24 17:23:00
8:51 AM,-9999,-9999,N/A,29.67,3.0,East,10.4,23.0,0.00,,Unknown,80,2013-02-24 17:51:00
8:54 AM,-9999,-9999,N/A,29.68,3.0,East,9.2,18.4,0.00,,Unknown,80,2013-02-24 17:54:00
9:54 AM,35.1,32.0,89,29.70,10.0,Variable,5.8,-,0.00,,Overcast,0,2013-02-24 18:54:00
10:11 AM,35.6,32.0,87,29.70,10.0,Variable,6.9,-,N/A,,Overcast,0,2013-02-24 19:11:00
10:54 AM,34.0,33.1,96,29.72,8.0,ESE,8.1,-,0.00,Snow,Light Snow,110,2013-02-24 19:54:00
11:54 AM,37.0,32.0,82,29.73,10.0,ENE,5.8,-,0.00,,Overcast,70,2013-02-24 20:54:00
12:05 PM,37.4,33.8,87,29.73,10.0,East,9.2,-,N/A,,Overcast,100,2013-02-24 21:05:00
12:54 PM,37.9,33.1,83,29.75,10.0,ESE,9.2,-,N/A,,Overcast,110,2013-02-24 21:54:00
1:54 PM,37.9,33.1,83,29.76,10.0,ESE,10.4,20.7,N/A,,Overcast,110,2013-02-24 22:54:00
2:54 PM,37.9,32.0,79,29.76,10.0,ESE,11.5,19.6,N/A,,Overcast,110,2013-02-24 23:54:00
3:54 PM,37.0,32.0,82,29.77,10.0,East,4.6,16.1,N/A,,Overcast,100,2013-02-25 00:54:00
4:05 PM,35.6,32.0,87,29.76,10.0,Variable,6.9,-,N/A,,Mostly Cloudy,0,2013-02-25 01:05:00
4:16 PM,37.4,32.0,81,29.77,10.0,East,8.1,16.1,N/A,,Overcast,80,2013-02-25 01:16:00
4:47 PM,35.6,32.0,87,29.77,10.0,ESE,9.2,18.4,N/A,,Scattered Clouds,120,2013-02-25 01:47:00
4:54 PM,36.0,32.0,86,29.78,10.0,East,8.1,-,N/A,,Scattered Clouds,100,2013-02-25 01:54:00
5:14 PM,35.6,32.0,87,29.78,10.0,ENE,8.1,16.1,N/A,,Mostly Cloudy,70,2013-02-25 02:14:00
5:54 PM,36.0,32.0,86,29.80,10.0,ENE,8.1,-,N/A,,Overcast,60,2013-02-25 02:54:00
6:54 PM,36.0,32.0,86,29.81,10.0,East,4.6,-,N/A,,Overcast,90,2013-02-25 03:54:00
7:54 PM,36.0,32.0,86,29.81,10.0,ENE,4.6,-,N/A,,Overcast,70,2013-02-25 04:54:00
8:38 PM,35.6,30.2,81,29.81,10.0,ENE,8.1,-,N/A,,Scattered Clouds,60,2013-02-25 05:38:00
8:54 PM,36.0,30.9,82,29.81,10.0,ENE,5.8,-,N/A,,Partly Cloudy,70,2013-02-25 05:54:00
9:11 PM,35.6,30.2,81,29.80,10.0,Variable,3.5,-,N/A,,Mostly Cloudy,0,2013-02-25 06:11:00
9:20 PM,35.6,30.2,81,29.80,10.0,ENE,6.9,-,N/A,,Scattered Clouds,60,2013-02-25 06:20:00
9:54 PM,36.0,30.9,82,29.81,10.0,Variable,5.8,-,N/A,,Scattered Clouds,0,2013-02-25 06:54:00
10:02 PM,35.6,30.2,81,29.81,10.0,Variable,4.6,-,N/A,,Mostly Cloudy,0,2013-02-25 07:02:00
10:17 PM,35.6,30.2,81,29.81,10.0,East,6.9,-,N/A,,Overcast,80,2013-02-25 07:17:00
10:54 PM,35.1,30.9,85,29.83,10.0,SE,3.5,-,N/A,,Overcast,140,2013-02-25 07:54:00
11:54 PM,33.1,30.0,89,29.84,10.0,Variable,3.5,-,N/A,,Overcast,0,2013-02-25 08:54:00